GFSSW_prec_cloud_003.txt.gz
Cloud_Cover
100 100 100 100 100 100 100 100 100 100 100 100 100 100 91 80 100 57 27 60 51 12 77 9 5 0 5 36 0 0 1 0 0 0 0 0 0 0 0 0 0 0 0 2 0
100 100 100 100 100 100 100 100 100 100 100 100 100 100 100 100 100 49 6 19 4 2 4 0 0 0 0 0 0 0 0 0 0 0 0 0 2 0 0 1 0 0 3 0 0
100 100 100 100 79 34 100 100 100 100 100 100 100 100 100 98 80 100 90 46 17 2 0 0 0 0 0 0 0 0 0 0 0 0 0 0 18 2 0 0 4 4 5 72 99
100 100 100 35 10 4 19 80 70 100 91 100 97 75 100 49 95 100 0 0 0 0 0 0 0 0 0 0 0 0 0 0 0 0 0 0 0 0 0 0 0 0 0 0 0
29 4 3 3 15 0 0 0 0 0 0 13 0 28 13 0 14 0 0 0 0 0 0 0 0 0 0 0 0 0 0 0 0 0 0 0 0 0 0 0 0 0 0 0 0
22 1 0 0 0 0 0 0 0 0 0 0 0 44 0 0 0 0 0 0 0 0 0 0 0 0 0 0 0 0 0 0 0 0 0 0 0 0 0 0 0 0 0 0 0
0 0 0 0 0 0 0 0 0 0 0 0 0 2 0 0 0 0 0 0 0 0 0 0 0 0 0 0 0 0 0 0 0 0 0 0 0 0 0 0 0 0 0 0 0
0 0 0 0 0 0 0 0 0 0 0 0 10 0 0 0 0 0 0 0 0 0 0 0 0 0 0 0 0 0 0 0 0 0 0 0 0 0 0 0 0 0 0 0 0
0 0 0 0 0 0 0 0 0 0 0 7 8 0 0 0 0 0 0 0 0 0 0 0 0 0 0 0 0 0 0 0 0 0 0 0 0 0 0 0 0 1 5 5 3
4 0 0 0 0 0 0 6 0 31 18 0 0 0 0 0 0 0 0 0 0 0 0 0 0 0 0 0 0 0 0 0 0 0 0 0 0 0 0 0 4 5 5 5 22
0 0 0 0 0 0 2 0 1 0 0 0 0 0 0 0 0 0 0 0 0 0 0 0 0 0 0 0 0 0 0 0 0 0 0 0 0 0 0 5 5 5 26 35 6
0 0 0 0 0 0 1 0 0 3 1 0 0 0 0 0 0 0 0 0 0 0 0 0 0 0 0 0 0 0 0 0 0 0 0 0 0 0 1 4 5 5 24 40 17
0 0 0 0 0 0 0 0 0 0 5 1 0 0 0 0 0 0 0 0 1 0 0 0 0 0 0 0 0 0 0 0 0 0 0 0 1 0 1 4 5 16 5 5 5
0 0 0 0 0 0 0 0 0 0 0 5 2 0 0 0 1 5 0 4 5 5 5 3 0 0 0 0 1 0 0 0 0 0 2 89 97 6 89 100 97 94 34 51 6
0 0 0 0 0 0 0 0 0 0 8 5 5 0 0 0 5 6 5 5 5 5 5 5 0 0 5 5 5 5 5 3 0 5 12 92 93 32 24 72 67 98 66 20 53
0 0 0 0 0 0 0 0 0 2 0 0 0 0 0 2 5 5 5 5 5 5 5 5 5 2 5 2 5 5 26 68 5 5 5 6 85 50 17 5 99 90 93 100 100
0 0 0 1 2 0 0 0 1 3 0 0 0 0 0 1 5 5 5 5 5 5 2 4 0 5 5 5 5 31 51 4 4 6 40 5 7 37 77 70 95 100 100 100 100
1 5 0 5 2 4 0 0 4 0 0 0 0 0 0 0 3 5 5 5 5 5 0 0 2 0 5 5 5 6 47 96 100 100 100 15 3 2 4 5 5 66 100 100 100
25 5 5 7 5 0 0 2 4 0 0 0 0 0 0 0 0 5 5 5 5 5 5 5 5 0 5 5 2 5 14 95 97 100 95 98 100 100 16 5 5 16 98 100 100
5 3 5 10 5 0 0 1 0 0 0 0 0 0 0 0 3 5 5 14 60 5 5 5 5 2 5 5 1 2 4 22 80 99 100 100 100 100 10 96 97 92 100 100 100
5 5 5 9 5 0 2 5 0 0 0 0 0 0 2 4 5 35 44 53 68 63 36 64 17 5 7 30 5 5 11 29 17 37 99 100 100 100 89 76 98 100 100 100 91
5 58 5 5 5 5 5 3 0 0 0 0 4 2 5 5 5 32 36 38 81 92 93 6 5 8 5 5 51 69 12 5 65 33 38 90 100 5 94 54 100 100 100 100 100
5 5 31 11 38 5 5 5 0 0 0 2 5 5 5 5 12 81 90 100 99 87 84 82 45 10 6 36 24 80 79 88 96 93 24 99 34 100 35 75 100 100 100 100 99
66 49 5 5 10 5 5 24 6 0 0 0 5 20 17 9 5 16 20 56 84 27 65 100 95 39 100 14 22 12 100 93 5 62 6 20 15 99 5 96 100 100 100 91 89
8 29 5 23 5 4 5 5 9 4 4 5 5 5 5 33 5 5 9 22 10 5 38 95 100 34 100 20 49 10 100 100 32 5 48 4 37 6 69 100 100 100 100 12 41
85 32 8 6 5 5 5 5 5 5 5 5 5 5 5 54 58 74 44 60 65 56 93 100 100 99 87 9 46 71 59 95 36 5 6 6 45 100 100 100 100 76 10 29 100
35 52 5 5 12 5 5 5 6 5 5 5 5 64 56 15 37 20 71 37 25 5 19 100 100 100 100 47 59 61 97 100 89 25 78 97 80 90 99 100 100 84 55 93 36

GFSSW_prec_cloud_006.txt.gz
Cloud_Cover
100 100 100 100 100 100 100 100 100 100 100 100 100 100 70 100 99 62 60 50 59 100 100 98 56 100 100 13 82 68 74 21 0 0 0 0 0 0 0 0 0 0 0 0 0
100 100 100 100 100 100 100 100 100 100 100 100 100 100 100 100 100 100 96 82 100 100 100 100 98 6 78 5 4 27 87 0 0 0 0 0 0 0 0 0 0 0 0 0 0
100 100 100 100 100 100 100 100 100 100 100 100 100 100 100 100 100 100 100 97 20 37 96 97 65 6 7 0 0 0 0 0 0 0 0 0 0 0 0 0 0 0 0 0 0
100 100 100 100 100 100 100 100 46 58 97 73 71 98 100 100 100 93 48 30 95 93 17 74 0 0 0 0 0 0 0 0 0 0 0 0 0 0 0 0 0 0 0 0 0
100 100 100 100 100 96 82 11 0 6 25 27 98 100 100 50 48 63 79 2 39 3 1 0 0 0 0 0 0 0 0 0 0 0 0 0 0 0 0 0 0 0 0 0 0
100 100 100 90 8 2 0 0 0 0 0 0 1 62 96 5 17 1 4 2 0 0 0 0 0 0 0 0 0 0 0 0 0 0 0 0 0 0 0 0 0 0 0 0 0
100 89 10 2 0 0 0 0 0 0 0 0 0 0 0 0 0 0 0 0 0 0 0 0 0 0 0 0 0 0 0 0 0 0 0 0 0 0 0 0 0 0 0 0 0
5 0 0 0 0 0 0 0 0 0 0 0 10 0 0 0 0 0 0 0 0 0 0 0 0 0 0 0 0 0 0 0 0 0 0 0 0 0 0 0 0 0 0 0 0
0 0 0 0 0 0 0 0 0 0 0 0 8 0 0 0 0 0 0 0 0 0 0 0 0 0 0 0 4 2 0 0 0 0 0 0 0 0 0 0 2 4 1 0 0
0 0 3 0 0 0 0 7 0 0 6 0 0 0 0 0 0 0 0 0 0 0 0 0 0 0 0 0 0 0 0 0 3 0 0 0 0 0 0 0 0 5 5 2 2
3 4 0 0 0 0 2 0 0 0 0 0 0 0 0 0 0 0 0 0 0 0 0 0 0 0 0 0 0 0 0 0 0 0 0 0 0 0 0 1 5 5 5 5 5
2 0 0 0 0 0 0 0 0 0 1 0 0 0 0 0 0 0 0 0 0 0 0 0 0 0 0 0 0 0 0 0 0 0 0 0 0 0 2 5 5 48 29 5 14
0 0 0 0 0 0 0 0 0 0 0 0 0 0 0 0 0 0 0 0 0 0 0 0 0 0 0 0 0 0 0 0 0 0 0 0 3 5 2 2 5 20 43 91 100
0 0 0 0 0 0 0 0 0 0 0 0 0 10 0 0 0 0 0 0 0 0 0 0 0 0 0 0 0 0 0 0 0 1 5 1 0 0 0 0 2 50 30 88 15
0 0 0 0 0 0 0 0 0 0 8 0 0 5 5 0 0 0 0 0 0 5 5 0 0 0 0 0 0 0 0 0 0 0 0 0 1 0 5 0 5 6 50 100 100
0 0 0 0 0 0 0 0 0 1 8 0 1 5 2 0 0 0 0 2 5 5 0 0 0 0 0 2 1 0 5 5 5 4 15 0 1 0 15 18 5 6 94 100 100
0 0 0 0 0 0 0 0 4 11 0 0 0 0 0 0 0 0 0 4 5 5 0 3 0 0 5 5 5 5 2 5 5 43 64 80 9 3 1 3 5 8 99 100 100
0 42 0 0 0 1 0 0 12 0 0 0 0 0 0 0 0 0 0 5 5 5 4 5 5 2 5 5 5 5 5 9 99 100 100 100 77 93 41 89 6 9 59 100 100
27 0 0 0 0 0 2 3 15 0 0 0 0 0 4 0 0 0 5 5 5 5 5 5 5 14 2 6 21 5 32 5 5 44 58 99 98 100 92 88 96 52 26 99 100
0 5 5 3 1 3 4 7 0 0 0 0 0 0 4 3 0 0 5 5 5 5 54 73 9 5 7 3 10 5 5 5 29 45 62 10 57 100 21 81 86 86 100 16 18
5 14 5 5 5 5 27 0 3 4 0 0 0 0 0 0 0 3 5 5 8 34 88 71 58 10 7 40 15 5 2 50 100 98 99 78 100 9 8 6 28 55 45 10 61
11 81 5 5 5 5 4 2 6 5 0 0 0 0 5 5 5 5 4 5 5 12 42 63 20 5 4 1 5 7 11 80 100 75 93 58 97 3 34 99 88 100 96 100 100
39 5 5 5 46 8 4 1 5 5 5 0 2 0 0 5 5 5 6 5 5 38 31 95 64 34 17 5 28 50 6 3 5 72 92 100 20 5 8 8 98 100 66 100 92
24 49 5 5 3 5 4 5 4 5 5 5 1 0 5 5 16 5 50 43 52 37 27 69 82 19 19 8 87 98 5 5 2 5 6 51 3 28 18 40 89 100 32 57 73
5 5 21 62 7 5 5 4 6 9 5 5 5 5 5 19 5 14 61 96 36 80 10 7 68 12 6 6 46 26 5 6 5 27 44 42 5 5 68 100 98 98 83 51 100
17 5 25 32 8 5 5 5 5 5 5 18 5 12 5 17 80 100 100 20 8 13 98 100 58 79 100 66 89 78 14 71 8 5 100 87 43 100 98 100 83 36 41 10 63
33 65 6 5 67 11 5 5 7 8 7 24 13 12 53 88 21 35 73 70 92 46 64 70 98 100 100 100 100 85 57 100 100 100 92 39 12 5 16 18 5 60 91 6 97

GFSSW_prec_cloud_009.txt.gz
Cloud_Cover
100 100 100 100 100 100 100 100 100 100 100 100 100 100 100 100 100 100 100 100 100 100 4 4 76 73 37 12 100 100 100 100 100 99 51 36 1 0 0 0 0 0 0 0 0
100 100 100 100 100 100 96 100 100 100 100 100 100 100 100 100 100 100 100 89 93 75 36 60 90 87 84 53 71 92 83 81 3 2 16 0 0 0 0 0 0 0 0 0 0
100 100 100 100 100 100 99 100 100 100 100 100 100 100 100 100 100 100 59 60 99 26 22 34 83 42 3 43 99 100 97 0 0 0 0 0 0 0 0 0 0 0 0 0 0
100 100 100 100 100 100 100 100 98 100 85 43 9 5 37 53 97 100 26 82 49 90 72 13 33 8 12 43 0 0 0 0 0 0 0 0 0 0 0 0 0 0 0 0 0
100 100 100 100 100 100 100 98 98 100 93 91 14 13 4 4 5 5 23 55 29 41 62 8 4 13 0 0 0 0 0 0 0 0 0 0 0 0 0 0 0 0 0 0 0
100 100 100 100 100 100 100 100 100 100 78 54 30 30 1 0 0 0 0 0 0 2 2 3 0 0 0 0 0 0 0 0 0 0 0 0 0 0 0 0 0 0 0 0 0
100 100 100 100 100 100 100 100 69 7 0 0 0 0 0 0 0 0 0 0 0 0 0 0 0 0 0 0 0 0 0 0 0 0 0 0 0 0 0 0 0 0 0 0 0
100 100 100 100 55 5 2 0 0 0 0 0 0 0 0 0 0 0 0 0 0 0 0 0 0 0 0 0 0 0 0 0 0 0 0 0 0 0 0 0 0 0 0 0 0
64 5 13 22 2 0 0 0 0 0 0 1 6 0 0 0 0 0 0 0 0 0 0 0 0 0 0 0 0 0 0 0 0 0 0 0 0 0 0 0 1 4 0 6 13
7 3 0 0 0 0 0 0 0 0 0 0 0 0 0 0 0 0 0 0 0 0 0 0 0 0 0 0 0 0 0 0 0 0 0 0 0 0 0 0 0 3 1 83 100
0 0 3 0 0 0 0 0 0 0 0 0 0 0 0 0 0 0 0 0 0 0 0 0 0 0 0 0 0 0 0 0 0 0 0 0 0 0 0 0 0 0 37 100 100
0 0 0 0 0 0 0 0 0 0 0 0 0 0 0 0 0 0 0 0 0 0 0 0 0 0 0 0 0 0 0 0 0 0 0 0 0 0 0 0 5 5 4 2 36
0 0 0 0 0 0 0 0 0 0 0 0 0 0 0 0 0 0 0 0 0 0 0 0 0 0 0 0 0 0 0 0 0 0 0 0 0 0 0 0 0 0 1 48 100
0 0 0 0 0 0 0 0 0 0 0 0 0 0 21 4 0 0 0 0 0 0 0 0 0 0 0 0 0 0 0 0 0 0 1 4 0 0 1 0 1 17 7 78 100
5 4 0 0 0 0 0 0 0 0 3 0 0 0 0 5 0 0 0 0 0 0 0 0 0 0 0 0 0 0 0 0 0 0 5 0 0 0 0 1 2 85 7 41 100
4 0 0 0 0 0 0 0 0 0 1 0 0 0 0 2 5 0 0 0 0 0 0 0 0 0 0 0 0 0 0 0 0 1 0 3 32 23 0 3 4 31 54 5 5
0 0 0 0 0 0 0 0 0 3 0 0 0 0 0 0 0 0 0 0 0 0 0 0 0 0 1 0 0 0 2 0 0 3 85 5 66 88 1 30 97 92 27 5 5
0 0 0 0 0 0 0 0 2 4 0 0 0 0 0 0 0 0 0 0 0 0 0 2 5 0 0 0 0 0 0 4 3 9 100 43 92 100 4 65 8 54 44 5 5
2 0 0 0 0 0 4 5 7 0 0 0 0 0 2 0 0 0 0 0 0 0 0 0 5 5 1 5 1 5 1 1 5 2 5 69 95 100 4 5 95 25 38 80 6
0 0 0 0 0 0 4 4 4 0 1 5 0 0 2 0 0 0 0 0 0 1 2 4 5 22 7 5 5 5 5 3 19 32 59 5 38 3 5 0 68 97 83 29 76
0 0 0 0 0 3 4 3 0 5 5 5 0 0 0 0 0 3 5 5 0 0 5 5 5 5 5 5 11 25 12 91 99 100 100 100 93 37 39 5 5 74 98 57 46
0 0 0 5 5 5 5 5 0 0 5 2 4 0 0 0 0 5 5 5 5 5 5 5 16 46 5 5 5 5 15 9 63 54 25 94 100 100 5 5 5 94 25 76 94
5 0 4 5 38 5 5 4 4 4 0 5 5 5 0 1 2 1 2 5 5 5 5 5 5 66 5 5 24 50 14 5 5 5 7 56 13 6 5 5 90 98 34 100 100
3 6 3 5 5 5 4 5 5 5 0 5 0 1 4 6 5 5 5 33 7 5 5 5 5 14 64 64 62 100 89 5 5 27 33 89 22 16 7 98 89 27 92 61 71
0 0 5 5 5 5 5 5 4 4 0 5 5 6 3 5 5 5 9 5 5 5 5 50 70 52 41 35 79 100 94 89 93 99 11 16 8 30 68 99 100 100 92 70 100
0 5 5 5 5 17 13 42 32 84 5 5 5 5 5 49 56 87 73 100 34 9 17 99 100 68 100 100 51 98 100 96 5 5 7 9 74 100 86 100 66 91 100 100 100
20 35 40 6 5 5 5 5 5 8 6 4 5 5 88 9 40 56 45 9 5 14 6 6 17 52 74 66 73 99 100 100 100 100 75 57 47 70 38 76 53 43 98 88 73

GFSSW_prec_cloud_012.txt.gz
Cloud_Cover
21 100 100 100 100 76 100 100 100 100 100 100 100 100 100 100 100 100 95 16 100 92 82 14 78 99 75 43 94 94 99 93 100 100 100 100 54 56 6 0 0 0 0 0 0
100 100 100 100 100 100 100 100 100 100 100 100 100 100 100 100 100 100 100 100 99 26 45 13 12 40 74 94 100 76 98 100 100 100 86 30 19 5 0 0 0 0 0 0 0
100 100 92 100 15 67 100 100 12 73 100 100 100 100 100 100 100 100 100 99 100 97 81 100 81 71 72 33 6 76 52 91 42 33 59 91 0 0 0 0 0 0 0 0 0
100 100 100 100 100 87 46 100 100 100 93 100 99 100 100 100 100 100 100 100 100 100 100 100 100 64 87 58 31 14 3 5 5 1 0 0 0 0 0 0 0 0 0 0 0
100 100 100 100 100 100 98 100 100 86 9 5 51 100 100 100 100 100 100 92 100 100 100 88 32 19 5 0 0 0 0 0 0 0 0 0 0 0 0 0 0 0 0 0 0
100 100 100 100 100 100 99 100 96 52 93 98 49 7 19 96 100 100 100 24 19 70 68 14 0 0 0 0 0 0 0 0 0 0 0 0 0 0 0 0 0 0 0 0 0
100 100 100 100 100 100 100 100 100 100 64 6 7 17 9 4 0 0 0 0 0 0 0 0 0 0 0 0 0 0 0 0 0 0 0 0 0 0 0 0 0 0 0 0 0
100 100 100 100 100 100 100 100 100 100 92 12 19 6 0 0 0 0 0 0 0 0 0 0 0 0 0 0 0 0 0 0 0 0 0 0 0 0 0 0 0 0 5 94 22
100 100 100 100 100 100 100 100 82 9 0 0 0 0 0 0 0 0 0 0 0 0 0 0 0 0 0 0 0 0 0 0 0 0 0 0 0 0 0 0 0 1 9 48 16
100 100 100 100 100 100 100 4 0 0 0 0 0 0 0 0 0 0 0 0 0 0 0 0 0 0 0 0 0 0 0 0 0 0 0 0 0 0 0 0 0 2 99 100 100
100 89 50 39 6 4 0 0 0 0 0 0 0 0 0 0 0 0 0 0 0 0 0 0 0 0 0 0 0 0 0 0 0 0 0 0 0 0 0 0 0 4 0 0 81
70 17 4 0 0 0 0 0 0 0 0 0 0 0 0 0 0 0 0 0 0 0 0 0 0 0 0 0 0 0 0 0 0 0 0 0 0 0 0 0 0 0 0 0 18
4 0 3 2 0 0 0 0 0 0 0 0 0 0 0 0 0 0 0 0 0 0 0 0 0 0 0 0 0 0 0 0 0 0 0 0 0 0 0 0 0 0 0 0 0
0 3 0 0 0 0 0 0 0 0 0 0 0 0 0 0 0 0 0 0 0 0 0 0 0 0 0 0 0 0 0 0 0 0 0 0 0 0 0 1 4 95 59 12 5
0 0 0 0 0 0 0 0 0 0 0 0 0 0 0 0 0 2 0 0 0 0 0 0 0 0 0 0 0 0 0 0 0 0 0 0 0 1 0 0 0 1 77 27 6
0 0 0 0 0 0 0 0 0 0 0 0 0 0 0 0 0 0 1 0 0 0 0 0 0 0 0 0 0 0 0 0 0 0 0 0 0 5 5 2 6 6 5 64 99
4 5 0 0 0 0 0 0 0 0 0 0 0 0 0 0 0 0 0 0 0 0 0 0 0 0 0 0 0 0 0 0 0 3 0 3 0 0 4 17 14 30 98 100 49
5 0 0 0 0 0 0 0 0 0 0 0 0 0 0 0 0 0 0 0 0 0 0 0 0 0 0 0 0 0 0 0 0 5 3 0 0 0 0 0 5 7 65 90 29
5 2 0 0 0 0 0 0 0 5 0 0 0 2 0 0 0 0 0 0 0 0 0 0 0 0 0 0 1 5 5 4 1 5 5 5 7 20 2 3 96 100 67 56 56
5 5 0 0 0 0 1 0 0 0 0 0 0 0 0 0 0 0 0 0 0 0 0 0 0 0 0 0 1 5 5 5 5 5 55 24 100 94 5 4 42 78 88 100 66
3 3 3 0 0 4 5 5 5 2 4 5 3 0 0 0 0 0 0 0 0 0 0 0 0 4 5 5 5 13 6 16 47 64 95 86 100 0 3 5 57 11 5 5 5
5 5 0 0 0 0 1 5 5 5 0 3 0 5 5 0 0 0 0 0 3 4 5 5 5 5 5 5 5 62 99 37 89 86 82 84 100 39 3 72 11 5 5 24 84
5 0 0 0 0 0 0 0 1 0 3 0 0 1 0 1 0 0 0 0 3 5 5 5 5 5 5 5 5 43 14 5 10 10 98 89 12 0 6 13 5 5 7 60 80
5 3 0 0 0 0 5 4 0 0 1 1 5 0 0 0 2 2 0 3 5 5 5 5 5 63 88 5 5 84 24 8 5 18 21 22 8 5 7 5 44 88 73 83 97
5 0 0 0 0 1 5 5 5 1 5 4 3 3 1 2 5 5 5 37 11 5 5 5 5 5 7 6 5 82 5 5 5 6 43 5 5 39 44 26 54 81 70 100 100
5 2 0 4 0 4 6 5 5 5 52 5 5 5 5 5 5 5 54 32 5 5 25 75 99 7 98 5 5 42 5 6 6 21 9 82 100 89 100 97 100 94 99 21 100
0 1 0 5 4 4 16 5 5 21 5 5 5 6 6 8 5 5 24 6 5 5 3 3 5 52 76 32 22 100 90 94 84 98 56 69 41 7 14 67 100 95 69 18 28

GFSSW_prec_cloud_015.txt.gz
Cloud_Cover
7 40 91 96 99 91 93 100 100 100 100 100 100 100 100 100 100 100 100 69 100 100 100 100 100 100 100 100 89 100 100 100 100 100 100 90 98 100 100 98 42 4 0 4 3
99 98 46 82 100 88 74 100 100 100 100 100 100 100 100 100 100 100 100 43 97 100 100 100 100 83 97 97 72 74 90 100 100 100 100 98 100 100 28 0 0 0 0 0 0
80 90 100 100 100 100 96 100 100 100 100 100 91 100 45 73 97 66 100 97 17 94 26 67 76 100 98 56 84 100 100 98 100 100 100 100 78 4 0 0 0 0 0 0 0
100 100 100 100 100 100 100 100 100 100 27 47 76 10 14 5 6 100 100 100 100 100 100 100 69 35 90 100 100 82 90 100 100 47 8 2 0 0 0 0 0 0 0 0 0
72 100 99 100 90 96 100 100 100 96 86 78 8 5 2 2 94 92 100 98 100 100 100 100 91 100 100 100 99 100 100 90 33 3 13 0 0 0 0 0 0 0 0 0 0
100 100 100 100 38 6 12 20 95 11 79 26 7 46 7 0 2 35 23 24 61 13 87 88 95 80 100 100 64 50 1 0 0 0 0 0 0 0 0 0 0 0 0 0 0
100 100 100 100 99 100 100 82 82 30 60 92 96 89 10 3 0 0 0 0 0 30 14 38 42 23 46 94 16 0 0 0 0 0 0 0 0 0 0 0 0 0 4 0 5
100 100 100 100 100 100 100 100 100 100 100 88 18 39 14 2 0 0 0 0 0 0 0 0 0 0 0 0 0 0 0 0 0 0 0 0 0 0 0 0 0 0 0 0 0
100 100 100 100 100 100 100 100 100 94 58 56 5 2 0 0 0 0 0 0 0 0 0 0 0 0 0 0 0 0 0 0 0 0 0 0 0 0 0 0 0 0 0 0 0
100 100 100 100 100 100 100 77 41 11 5 1 0 0 0 0 0 0 0 0 0 0 0 0 0 0 0 0 0 0 0 0 0 0 0 0 0 0 0 0 0 0 0 0 0
100 100 100 100 100 100 100 77 37 4 0 0 0 0 0 0 0 0 0 0 0 0 0 0 0 0 0 0 0 0 0 0 0 0 0 0 0 0 0 0 0 0 0 0 0
100 100 97 100 100 96 51 58 4 0 0 0 0 0 0 0 0 0 0 0 0 0 0 0 0 0 0 0 0 0 0 0 0 0 0 0 0 0 0 0 0 0 0 0 0
49 96 100 34 9 19 4 0 0 0 0 0 0 0 0 0 0 0 0 0 0 0 0 0 0 0 0 0 0 0 0 0 0 0 0 0 0 0 0 0 0 0 0 2 4
82 15 9 5 0 0 0 0 0 0 0 0 0 0 0 0 0 0 0 0 0 0 0 0 0 0 0 0 0 0 0 0 0 0 0 0 0 5 0 0 1 0 0 0 0
5 5 5 5 5 0 0 0 0 0 0 0 0 0 0 0 0 0 0 0 0 0 0 0 0 0 0 0 0 0 0 0 0 0 0 0 0 0 4 0 2 9 32 42 57
40 5 18 4 4 2 0 0 0 0 0 0 0 0 0 0 0 0 0 0 0 0 0 0 0 0 0 0 0 0 0 0 0 0 0 0 0 0 0 46 100 99 97 100 100
5 5 5 0 5 0 0 0 0 0 0 0 0 0 0 0 0 0 0 0 0 0 0 0 0 0 0 0 0 0 0 2 0 3 0 5 0 0 0 5 95 98 43 86 95
5 5 5 5 0 5 0 0 0 0 0 0 0 0 0 0 0 0 0 0 0 0 0 0 0 0 0 0 0 0 0 3 0 5 7 5 5 5 4 3 6 92 67 5 5
6 5 5 5 5 2 0 0 0 0 0 0 0 0 0 0 0 0 0 0 0 0 0 0 0 0 0 0 0 0 0 0 0 5 13 96 60 5 0 3 3 0 2 5 5
27 61 25 6 2 0 0 0 0 0 0 0 2 0 0 0 0 0 0 0 0 0 0 0 0 0 0 0 0 0 0 0 5 22 98 86 100 76 1 3 24 92 26 56 9
10 65 15 5 2 0 0 0 0 1 0 0 1 1 0 5 2 0 0 0 0 0 0 0 0 0 0 4 5 5 3 5 5 8 23 58 75 5 29 5 13 5 11 10 5
38 36 12 0 0 0 0 0 0 5 3 4 2 5 1 5 5 0 0 0 0 0 0 0 0 2 5 5 32 12 5 5 76 50 8 19 26 5 2 5 3 5 5 0 3
55 43 5 1 0 0 0 0 0 0 5 5 5 1 1 0 0 0 0 0 0 0 0 0 0 4 5 5 5 4 0 4 5 5 99 85 31 0 5 18 28 6 6 33 52
20 32 5 0 0 0 0 0 0 4 5 3 3 5 5 5 3 0 0 0 0 5 4 0 0 0 3 0 2 3 0 2 5 84 59 32 88 5 10 36 12 5 71 98 94
33 6 5 0 0 0 0 0 0 5 5 5 5 5 4 2 3 4 3 2 5 5 5 5 4 5 6 5 14 7 5 5 5 5 97 9 5 5 6 15 67 76 87 94 95
5 5 5 4 0 0 0 0 0 2 5 5 5 5 4 5 18 5 4 0 3 5 5 5 5 5 5 5 5 6 5 5 5 5 5 22 44 73 81 19 89 100 100 78 71
5 5 5 5 4 0 2 0 0 2 5 5 5 10 5 6 5 10 31 13 2 5 5 1 5 56 27 40 33 97 47 5 28 37 42 77 12 5 6 21 5 5 5 5 10

GFSSW_prec_cloud_018.txt.gz
Cloud_Cover
86 64 25 3 80 28 2 69 100 100 100 100 100 100 100 100 100 100 100 100 100 100 100 100 100 95 100 100 100 100 100 100 100 100 100 100 100 100 100 100 100 100 100 100 77
100 44 100 25 10 25 100 35 39 100 100 100 100 100 100 100 100 100 100 100 86 100 100 100 100 93 100 100 81 74 95 100 100 100 100 100 100 100 100 100 100 100 28 5 3
92 97 99 94 100 100 100 19 55 100 100 100 18 9 100 100 100 68 32 46 87 100 100 52 28 34 68 94 90 96 100 100 100 100 100 99 100 100 100 99 30 8 0 0 0
3 67 100 100 100 100 100 100 100 100 100 82 100 96 10 30 82 100 100 26 6 89 46 78 100 97 88 95 95 100 100 50 75 100 100 99 96 100 92 43 2 0 0 0 0
100 100 100 100 100 100 100 100 100 100 100 100 18 3 11 43 49 100 100 100 87 51 78 100 100 94 100 75 14 68 100 100 100 100 74 32 2 0 0 3 0 0 0 0 0
100 100 100 100 100 100 100 100 100 100 66 5 10 38 9 0 0 0 3 8 4 70 98 70 97 62 4 38 4 2 18 50 58 2 3 0 0 0 0 0 0 0 0 0 0
100 100 100 100 100 100 100 100 100 71 5 6 33 2 2 5 2 0 0 0 0 2 6 21 0 0 0 0 0 0 0 0 0 0 0 0 0 0 0 0 0 0 0 0 0
100 100 100 100 5 17 21 6 29 5 5 5 21 63 10 8 0 0 0 0 0 0 0 0 0 0 0 0 0 0 0 0 0 0 0 0 0 0 0 0 0 0 0 0 0
100 100 100 100 5 9 19 11 5 22 93 100 99 96 8 0 0 0 0 0 0 0 0 0 0 0 0 0 0 0 0 0 0 0 0 0 0 0 0 0 0 0 0 0 0
100 100 100 100 99 99 100 100 100 100 100 100 74 5 0 0 0 0 0 0 0 0 0 0 0 0 0 0 0 0 0 0 0 0 0 0 0 0 0 0 0 0 0 0 0
100 100 100 100 100 100 100 100 92 100 96 13 1 0 0 0 0 0 0 0 0 0 0 0 0 0 0 0 0 0 0 0 0 0 0 0 0 0 0 0 0 0 0 0 0
100 100 100 100 100 100 100 100 100 76 25 0 0 0 0 0 0 0 0 0 0 0 0 0 0 0 0 0 0 0 0 0 0 0 0 0 0 0 0 0 0 0 0 0 0
100 100 100 100 100 100 76 19 28 2 2 0 0 0 0 0 0 0 0 0 0 0 0 0 0 0 0 0 0 0 0 0 0 0 0 0 0 0 0 0 0 5 18 5 5
100 100 57 59 47 25 36 5 1 0 0 0 0 0 0 0 0 0 0 0 0 0 0 0 0 0 0 0 0 0 0 0 0 0 0 0 0 0 0 0 0 0 8 70 80
90 91 8 5 59 8 2 0 0 0 0 0 0 0 0 0 0 0 0 0 0 0 0 0 0 0 0 0 0 0 0 0 0 0 0 0 0 0 0 0 5 14 12 58 10
11 22 5 16 5 0 0 0 0 0 0 0 0 0 0 0 0 0 0 0 0 0 2 0 0 0 0 0 0 0 0 0 0 0 0 0 0 3 0 5 70 75 18 5 5
30 43 6 15 5 3 0 1 0 0 0 0 0 0 0 0 0 0 0 0 0 0 0 1 0 0 0 0 0 0 0 1 0 4 4 0 1 0 0 0 4 5 1 2 5
98 68 67 83 20 5 5 5 0 0 0 0 0 0 0 0 0 0 0 0 0 0 0 0 0 0 0 0 0 0 0 4 0 5 3 0 4 0 0 0 2 2 5 5 5
83 67 54 88 5 7 5 0 0 0 0 0 0 0 0 0 0 0 0 0 0 0 0 0 0 0 0 0 0 0 0 0 0 3 4 4 4 0 0 0 0 0 4 5 0
68 42 64 12 5 5 5 5 0 0 0 0 0 0 0 0 0 0 0 0 0 0 0 0 0 0 0 0 0 0 0 0 1 4 5 2 5 0 1 2 2 4 1 2 5
66 14 26 50 5 5 5 3 0 0 2 0 0 0 0 0 0 0 0 0 0 0 0 0 0 0 0 0 0 0 3 5 2 4 25 60 38 2 5 19 17 60 27 16 52
78 71 18 41 51 5 5 0 0 4 5 0 4 5 5 5 0 0 0 0 0 0 0 0 0 0 0 0 0 0 5 5 3 5 5 56 47 5 5 36 28 70 50 56 70
75 40 7 5 5 5 2 0 0 0 0 0 2 5 5 5 4 0 0 0 0 0 0 0 0 3 0 0 0 5 4 5 5 10 53 88 93 46 99 100 88 69 44 20 8
43 66 50 5 5 5 0 0 0 0 0 0 0 0 1 0 0 1 0 0 0 0 0 0 0 0 0 0 5 5 10 46 70 94 100 100 100 21 14 26 36 26 50 44 85
60 24 6 7 5 5 0 0 0 0 0 0 0 5 5 1 1 4 4 0 0 0 4 0 0 4 4 5 14 46 5 5 18 6 92 31 11 55 30 37 45 46 52 23 19
70 63 32 28 5 5 3 0 0 3 0 0 0 6 11 5 5 5 5 5 1 2 0 1 5 5 5 5 5 91 5 5 5 5 5 6 5 5 5 15 9 5 78 100 100
92 81 86 29 5 3 0 0 0 0 0 0 0 0 5 24 5 5 5 5 5 5 5 5 5 13 48 10 31 19 5 5 5 6 5 5 5 5 5 5 38 100 97 52 21